Voltar ao catálogo

KUIPER-00275

AtivoComunicaçõesLEO
NORAD 67793·PAYLOAD·🇺🇸 United States

Lançado Feb 12, 2026 de Guiana Space Centre

Loading…

Próximas Passagens (próximas 24 horas)

TLE

AtualizadoSource: CelesTrak SupGP

Época: Sep 15, 2026, 00:51 UTC

1 67793C 26030AF  26258.03586806  .00003614  00000+0  47322-3 0  2584
2 67793  51.8991  65.8368 0000834 119.4538 229.9652 14.79919789    19

Acompanhe KUIPER-00275 em tempo real com AllMySat

Download on the App Store